Location: Bale Grist Mill State Historic Park
(38.5407°N, 122.5089°W)
Time: 21:15:41
(UTC+00:00)

Daily predictions for brighter satellites

Satellite Brightness Start Highest point End
(mag) Time Altitude Azimuth Time Altitude Azimuth Time Altitude Azimuth
Cosmos 2297 Rocket 4.2 12:11:53 20° SE 12:11:53 20° SE 12:13:34 10° SE
Cosmos 2227 Rocket 3.8 12:23:21 27° SE 12:23:21 27° SE 12:25:52 10° SSE
Cosmos 2074 Rocket 4.5 12:25:47 57° E 12:25:47 57° E 12:31:29 10° SSE
USA 215 4.3 12:27:57 10° E 12:33:46 36° NNE 12:35:14 32° N
Cosmos 2278 4.2 12:36:20 56° E 12:36:20 56° E 12:41:32 10° NNE
ATLAS 2AS CENTAUR R/B 3.9 12:49:35 10° S 12:57:02 49° ESE 13:04:39 10° NE
ALOS 3.3 12:59:45 10° NNE 13:04:14 45° E 13:08:41 10° S
Cosmos 1980 Rocket 2.3 13:01:29 26° S 13:04:45 74° ESE 13:10:25 10° NNE
Cosmos 1953 3.1 13:02:23 10° SSE 13:06:17 50° E 13:10:13 10° NNE
FENGYUN 3A 4.5 13:02:55 10° NNE 13:08:10 50° E 13:13:25 10° S
Okean O Rocket 3.8 13:05:40 10° NE 13:09:23 25° E 13:13:03 10° SSE
USA 238 DEB 4.3 13:05:31 23° NNW 13:10:04 57° NE 13:17:22 10° SE
USA 238 4.3 13:05:36 23° NNW 13:10:10 57° NE 13:17:28 10° SE
STARLINK-58 4.3 13:12:27 50° ENE 13:12:27 50° ENE 13:15:31 10° NE
Nadezhda 1 Rocket 3.7 13:05:45 10° S 13:11:48 77° W 13:17:54 10° N
Cosmos 1697 Rocket 3.3 13:14:13 39° NNW 13:14:13 39° NNW 13:18:02 10° NNE
STARLINK-62 4.2 13:14:10 51° NE 13:14:10 51° NE 13:17:15 10° NE
Cosmos 2327 Rocket 4.3 13:07:59 10° N 13:14:15 82° W 13:20:23 10° S
Cosmos 1538 Rocket 3.9 13:15:28 54° SW 13:16:40 77° WNW 13:22:00 10° NNE
COSMOS 2455 2.8 13:15:52 19° SSW 13:20:23 89° ESE 13:26:26 10° NNE
CZ-3 Stage 3 3.9 13:20:31 31° SW 13:21:36 32° SSW 13:25:04 10° SE
BREEZE-M DEB (TANK) 3.7 13:25:59 32° N 13:25:59 32° N 13:32:30 10° NE
STARLINK-33 4.2 13:27:24 40° NNE 13:27:24 40° NNE 13:29:55 10° NE
CZ-3 R/B 3.3 13:16:10 25° WSW 13:27:35 50° SSW 13:34:11 10° ESE
Meteor 1-21 Rocket 4.5 13:22:54 10° N 13:28:48 74° E 13:34:42 10° SSE
STARLINK-66 4.1 13:30:52 41° NNE 13:30:52 41° NNE 13:33:27 10° NE
SEDSat Delta rocket 4.5 13:29:13 31° SW 13:31:14 41° S 13:36:28 10° ESE
STARLINK-55 4.0 13:34:29 41° NNE 13:34:29 41° NNE 13:37:07 10° NE
STARLINK-34 3.5 13:34:45 64° NNW 13:34:45 64° NNW 13:38:40 10° NE
STARLINK-24 3.5 13:36:34 62° NW 13:36:34 62° NW 13:40:32 10° NE
SWAS 4.3 13:36:28 59° WNW 13:36:55 64° WSW 13:41:07 10° SSE
STARLINK-81 3.4 13:37:34 65° WNW 13:37:45 66° NW 13:41:46 10° NE
STARLINK-28 4.1 13:38:57 36° N 13:38:57 36° N 13:41:32 10° NE
STARLINK-54 3.5 13:39:30 58° NW 13:39:37 58° NW 13:43:36 10° NE
COSMO-SKYMED 1 2.4 13:35:44 10° S 13:40:03 71° WSW 13:42:20 27° NNW
Centaur D-1A AC-32 4.2 13:38:37 13° SSW 13:40:16 16° S 13:42:50 10° SE
Cosmos 2082 4.0 13:39:49 38° WNW 13:40:56 43° WSW 13:46:16 10° S
STARLINK-77 3.5 13:40:44 59° WNW 13:41:03 62° NW 13:45:03 10° NE
Cosmos 1606 Rocket 3.6 13:36:48 10° S 13:41:14 80° E 13:45:40 10° N
Cosmos 2184 Rocket 4.5 13:41:09 34° W 13:41:34 35° W 13:47:08 10° SSW
STARLINK-25 3.5 13:42:21 56° WNW 13:42:43 60° NW 13:46:43 10° NE
Cosmos 1726 Rocket 3.9 13:38:50 10° S 13:43:13 66° E 13:47:38 10° NNE
STARLINK-71 3.6 13:44:18 51° NW 13:44:36 52° NW 13:48:33 10° NE
STARLINK-79 3.6 13:45:30 51° WNW 13:46:01 56° NW 13:49:59 10° NE
STARLINK-42 3.6 13:46:33 47° NW 13:46:34 47° NW 13:50:14 10° NE
STARLINK-78 3.6 13:47:10 48° WNW 13:47:44 53° NW 13:51:41 10° NE
SJ-12 4.0 13:43:59 10° N 13:47:56 51° WNW 13:51:53 10° SSW
CZ-4B DEB 4.1 13:42:48 10° N 13:48:22 78° WNW 13:53:52 10° SSW
STARLINK-57 3.7 13:48:55 45° WNW 13:49:29 50° NW 13:53:25 10° NE
STARLINK-64 3.7 13:49:22 45° NW 13:49:35 46° NW 13:53:16 10° NE
Cosmos 1680 Rocket 3.8 13:44:35 10° S 13:49:51 69° ESE 13:55:09 10° NNE
Cosmos 2154 Rocket 4.1 13:44:00 10° NNW 13:49:55 49° W 13:55:49 10° SSW
STARLINK-49 3.7 13:50:17 44° WNW 13:51:00 50° NW 13:54:56 10° NE
Cosmos 2297 Rocket 4.0 13:53:46 14° SW 13:53:46 14° SW 13:55:08 10° SW
NOAA 6 4.1 13:46:19 10° NNE 13:51:31 79° ESE 13:56:42 10° S
STARLINK-27 3.8 13:51:55 42° WNW 13:52:42 49° NW 13:56:37 10° NE
Cosmos 2322 Rocket 3.4 13:48:28 10° S 13:53:49 45° ESE 13:59:12 10° NE
STARLINK-74 3.8 13:53:28 40° WNW 13:54:19 47° NW 13:58:13 10° NE
STARLINK-39 3.8 13:55:06 38° WNW 13:56:00 46° NW 13:59:53 10° NE
Cosmos 972 Rocket 4.2 13:50:42 10° NNW 13:56:56 85° WSW 14:02:24 10° SSE
STARLINK 3.9 13:56:43 37° WNW 13:57:41 44° NW 14:01:34 10° NE
STARLINK-69 4.0 13:58:36 34° WNW 13:59:32 40° NW 14:03:21 10° NE
STARLINK-21 4.0 13:59:54 33° WNW 14:01:00 41° NW 14:04:51 10° NE
STARLINK 1035 4.4 13:59:13 10° SSW 14:02:24 40° SE 14:05:35 10° ENE
NOSS 3-2 (C) 4.3 13:54:56 10° NNW 14:02:39 75° NE 14:11:10 10° SE
STARLINK-45 4.2 14:01:55 31° WNW 14:02:56 37° NNW 14:06:42 10° NE
MOS 1-B 4.4 13:58:00 10° N 14:03:36 53° WNW 14:09:12 10° SW
Cosmos 2227 Rocket 3.9 14:05:15 14° WSW 14:05:15 14° WSW 14:06:47 10° SW
STARLINK-70 4.1 14:03:17 30° WNW 14:04:26 37° NNW 14:08:13 10° NE
STARLINK 1027 4.1 14:01:36 10° SSW 14:04:51 47° SE 14:08:07 10° ENE
Cosmos 44 Rocket 3.8 14:03:13 26° WNW 14:05:07 38° WSW 14:09:30 10° S
STARLINK 1060 4.4 14:02:06 10° SSW 14:05:32 44° SE 14:08:59 10° ENE
Cosmos 1726 2.2 14:02:23 10° SSW 14:05:57 50° W 14:09:32 10° N
STARLINK-76 4.1 14:04:41 29° WNW 14:05:59 38° NW 14:09:47 10° NE
NOSS 2 (A) 4.0 14:06:05 52° WSW 14:06:05 52° WSW 14:08:25 10° SSE
STARLINK 1040 3.2 14:03:59 15° SSW 14:06:09 57° SE 14:08:58 10° NE
Cosmos 2112 Rocket 4.1 14:01:13 10° SSW 14:06:33 83° ESE 14:11:56 10° NNE
Abrixas rocket 3.8 14:06:23 18° NNW 14:07:35 22° NNE 14:10:04 10° ENE
STARLINK 4.2 14:06:16 28° WNW 14:07:39 37° NNW 14:11:25 10° NE
STARLINK 1030 4.3 14:04:51 10° SSW 14:08:19 47° SE 14:11:47 10° ENE
Cosmos 2263 Rocket 2.7 14:02:43 10° NNW 14:08:19 62° ENE 14:13:55 10° SE
Cosmos 2228 3.1 14:04:31 10° SSW 14:08:49 54° W 14:13:08 10° N
DMSP B5D1-3 4.5 14:03:48 10° SSE 14:08:55 87° WSW 14:14:03 10° NNW
H-2A R/B 3.7 14:05:23 10° NNE 14:09:13 51° E 14:12:59 10° S
SJ-7 4.4 14:05:05 10° N 14:09:15 83° WNW 14:13:26 10° SSW
SL-4 R/B 1.9 14:07:19 24° NW 14:09:16 61° NE 14:12:39 10° ESE
STARLINK-32 4.2 14:07:52 27° WNW 14:09:18 36° NNW 14:13:03 10° NE
STARLINK-40 4.2 14:09:30 26° WNW 14:11:00 35° NNW 14:14:44 10° NE
STARLINK 1020 4.1 14:07:38 10° SSW 14:11:07 50° SE 14:14:38 10° ENE
ATLAS 3B R/B 3.6 14:05:52 10° NNW 14:12:19 46° NE 14:18:57 10° ESE
STARLINK-44 4.3 14:11:05 25° WNW 14:12:39 34° NNW 14:16:22 10° NE
Helios 1A Rocket 2.8 14:08:44 10° N 14:12:53 80° WNW 14:17:00 10° SSW
NOSS 3-4 (A) 3.3 14:07:00 10° SW 14:12:56 74° NW 14:19:13 10° NNE
NOSS 3-4 (C) 3.3 14:07:06 10° SW 14:13:02 75° NW 14:19:19 10° NNE
Cosmos 2344 4.3 14:09:02 19° W 14:13:11 30° NW 14:20:14 10° NNE
STARLINK 1034 4.0 14:10:26 10° SSW 14:13:56 54° SE 14:17:29 10° ENE
STARLINK-37 4.4 14:12:51 24° WNW 14:14:26 32° NNW 14:18:05 10° NNE
STARLINK-36 4.4 14:14:15 23° WNW 14:15:59 32° NNW 14:19:39 10° NNE
USA 215 3.3 14:09:55 10° SE 14:16:25 74° SW 14:22:36 12° NW
Cosmos 2366 rocket 4.1 14:10:59 10° N 14:17:22 86° E 14:23:43 10° S
STARLINK-68 4.5 14:16:11 22° WNW 14:17:51 30° NNW 14:21:26 10° NNE
Cosmos 1908 3.1 14:14:44 10° SSW 14:18:37 69° W 14:22:32 10° N
STARLINK-63 4.5 14:17:35 21° WNW 14:19:24 30° NNW 14:22:59 10° NNE
STARLINK 1033 3.7 14:16:03 10° SW 14:19:37 62° SE 14:23:12 10° NE
STARLINK-35 4.5 14:19:00 20° WNW 14:20:57 30° NNW 14:24:32 10° NNE
NOSS 7 (D) 4.4 14:19:19 20° NW 14:21:19 55° WSW 14:24:51 10° SSE
ATLAS 2A CENTAUR R/B 4.1 14:19:47 10° SSW 14:23:15 22° SE 14:31:14 10° E
NOSS 3-2 (A) 4.2 14:16:47 10° NW 14:24:26 60° WSW 14:32:46 10° SSE
Lacrosse 5 2.2 14:23:52 10° SSW 14:28:55 71° SE 14:33:59 10° NE
SL-16 R/B 2.2 14:26:59 10° SSW 14:32:37 71° WNW 14:38:18 10° NNE
ADEOS Rocket 2.7 14:27:15 10° SSE 14:32:44 86° WSW 14:38:21 10° NNW
Cosmos 1703 3.4 14:28:59 10° NNW 14:32:50 52° W 14:36:39 10° S
Cosmos 1953 Rocket 3.9 14:29:11 10° NNW 14:33:23 42° W 14:37:29 10° SSW
Genesis I 4.1 14:31:11 10° NNW 14:34:54 46° NE 14:38:35 10° SE
CENTAUR R/B 3.3 14:28:25 10° NNW 14:36:42 89° WSW 14:45:29 10° SSE
STARLINK 1029 2.8 14:36:29 10° SW 14:39:36 70° NW 14:42:44 10° NE
STARLINK 1044 3.2 14:36:16 10° SW 14:39:53 79° NW 14:43:31 10° NE
ALOS 3.6 14:38:11 10° NNW 14:41:16 18° WNW 14:44:20 10° WSW
Milstar 3 Cent rocket 4.4 14:30:15 10° WSW 14:41:36 38° S 14:47:41 10° ESE
Cosmos 2056 Rocket 4.0 14:36:22 10° NNW 14:41:47 69° ENE 14:47:10 10° SSE
Cosmos 2360 Rocket 3.0 14:36:52 10° S 14:42:24 59° ESE 14:47:59 10° NNE
Cosmos 1953 4.2 14:41:53 10° W 14:43:00 11° WNW 14:44:07 10° NW
CZ-4 R/B 4.1 14:39:47 10° NE 14:43:21 26° E 14:46:52 10° SSE
Okean-O 3.7 14:40:32 10° NNE 14:44:52 51° E 14:49:10 10° S
CZ-4B R/B 3.7 14:40:35 10° N 14:45:39 37° WNW 14:50:36 10° SW
Okean O Rocket 2.5 14:41:55 10° NNW 14:45:39 27° WNW 14:49:22 10° SW
ATLAS 2AS CENTAUR R/B 3.4 14:40:43 10° WSW 14:48:11 42° NW 14:55:43 10° NNE
Cosmos 1980 Rocket 3.6 14:45:46 10° W 14:49:20 17° NW 14:52:56 10° NNW
STARLINK 1028 3.2 14:50:05 10° WSW 14:52:52 41° NW 14:55:40 10° NE
STARLINK 1021 3.2 14:50:18 10° WSW 14:53:05 40° NW 14:55:53 10° NE
CZ-2C R/B 4.3 14:48:32 10° SSE 14:53:05 63° ENE 14:57:35 10° N
STARLINK 1019 3.2 14:50:34 10° WSW 14:53:19 40° NW 14:56:05 10° NE
STARLINK 1012 3.2 14:50:46 10° WSW 14:53:32 40° NW 14:56:19 10° NE
STARLINK 1010 3.2 14:50:58 10° WSW 14:53:44 40° NW 14:56:32 10° NE
STARLINK 1026 3.2 14:51:12 10° WSW 14:53:58 39° NW 14:56:45 10° NE
STARLINK 1013 3.2 14:51:26 10° WSW 14:54:12 39° NW 14:56:59 10° NE
STARLINK 1009 3.2 14:51:40 10° WSW 14:54:25 39° NW 14:57:12 10° NE
STARLINK 1015 3.2 14:51:54 10° WSW 14:54:39 39° NW 14:57:26 10° NE
